Location: Atherton
(17.2661°S, 145.4859°E)
Time: 04:00:39
(UTC+10:00)

Hubble Space Telescope - Pass Details

Date: 09 February 2026
Orbit: 476 x 479 km, 28.5° (Epoch: 6 March)

Event Time Altitude Azimuth Distance (km) Brightness Sun altitude
Rises 19:23:38 0° 322° (NW) 2,501 4.5 -7.5°
Reaches altitude 10° 19:26:10 10° 338° (NNW) 1,628 3.3 -8.1°
Maximum altitude 19:29:06 22° 30° (NNE) 1,082 1.9 -8.7°
Enters shadow 19:31:33 13° 76° (ENE) 1,485 2.3 -9.3°
